If you wish to contribute or participate in the discussions about articles you are invited to join SKYbrary as a registered user

 Actions

Ambler Airport

From SKYbrary Wiki

PAFM
Airport
ICAO: PAFM – IATA: ABL
Summary
Name Ambler Airport
Region North America
Territory Alaska US.gif
Location Ambler, Alaska
Serving Ambler
Elevation 101.803 m
334 ft
334 ft101.803 m
Type medium airport
Coordinates 67° 6' 23.00" N, 157° 51' 27.00" W
Runways
Designator Length Width Surface ROPS
9/27 732 m2,401.575 ft
18 m59.055 ft
GVL /
18/36 914 m2,998.688 ft
18 m59.055 ft
GVL /


METAR
Observation PAFM 191956Z AUTO 00000KT 10SM BKN043 M04/M14 A2974 RMK AO2 SLP085 T10441139 FZRANO
Station Ambler, Ambler Airport
Date/Time 19 April 2019 19:56:00
Wind direction
Wind speed 00 kts
Lowest cloud amount broken clouds
Temperature
Dew point
Humidity 47%
QNH hPa
Weather condition n/a

Maps

Terrain

Loading map...

Airport Layout

Loading map...


Accidents & Serious Incidents at or in vicinity of PAFM

None on SKYbrary